TimeCST,TemperatureF,Dew PointF,Humidity,Sea Level PressureIn,VisibilityMPH,Wind Direction,Wind SpeedMPH,Gust SpeedMPH,PrecipitationIn,Events,Conditions,WindDirDegrees,DateUTC
12:10 AM,32.0,14.0,48,30.62,10.0,North,13.8,-,N/A,,Overcast,360,2013-11-23 06:10:00
12:30 AM,32.0,12.2,44,30.62,10.0,North,16.1,-,N/A,,Overcast,360,2013-11-23 06:30:00
12:50 AM,32.0,14.0,48,30.62,10.0,North,12.7,-,N/A,,Overcast,10,2013-11-23 06:50:00
1:10 AM,32.0,12.2,44,30.62,10.0,North,13.8,-,N/A,,Overcast,360,2013-11-23 07:10:00
1:30 AM,32.0,12.2,44,30.62,10.0,North,13.8,-,N/A,,Overcast,360,2013-11-23 07:30:00
1:50 AM,32.0,12.2,44,30.62,10.0,North,13.8,-,N/A,,Overcast,360,2013-11-23 07:50:00
2:10 AM,32.0,14.0,48,30.62,10.0,North,11.5,-,N/A,,Overcast,10,2013-11-23 08:10:00
2:30 AM,32.0,12.2,44,30.63,10.0,North,11.5,-,N/A,,Overcast,360,2013-11-23 08:30:00
2:50 AM,32.0,12.2,44,30.63,10.0,North,12.7,-,N/A,,Overcast,350,2013-11-23 08:50:00
3:10 AM,32.0,12.2,44,30.63,10.0,North,12.7,-,N/A,,Overcast,350,2013-11-23 09:10:00
3:30 AM,32.0,12.2,44,30.62,10.0,North,9.2,-,N/A,,Overcast,350,2013-11-23 09:30:00
3:50 AM,32.0,12.2,44,30.62,10.0,North,12.7,-,N/A,,Overcast,350,2013-11-23 09:50:00
4:10 AM,32.0,12.2,44,30.63,10.0,North,10.4,-,N/A,,Overcast,350,2013-11-23 10:10:00
4:30 AM,32.0,12.2,44,30.63,10.0,North,10.4,-,N/A,,Overcast,350,2013-11-23 10:30:00
4:50 AM,32.0,10.4,41,30.64,10.0,North,12.7,-,N/A,,Overcast,350,2013-11-23 10:50:00
5:10 AM,32.0,10.4,41,30.65,10.0,North,12.7,-,N/A,,Overcast,350,2013-11-23 11:10:00
5:30 AM,32.0,10.4,41,30.65,10.0,North,11.5,-,N/A,,Overcast,360,2013-11-23 11:30:00
5:50 AM,32.0,8.6,38,30.66,10.0,North,11.5,-,N/A,,Overcast,360,2013-11-23 11:50:00
6:10 AM,32.0,8.6,38,30.66,10.0,North,9.2,-,N/A,,Overcast,360,2013-11-23 12:10:00
6:30 AM,32.0,6.8,35,30.66,10.0,North,10.4,-,N/A,,Overcast,10,2013-11-23 12:30:00
6:50 AM,32.0,8.6,38,30.67,10.0,North,9.2,-,N/A,,Overcast,10,2013-11-23 12:50:00
7:10 AM,32.0,8.6,38,30.67,10.0,North,10.4,-,N/A,,Overcast,360,2013-11-23 13:10:00
7:30 AM,32.0,10.4,41,30.68,10.0,North,11.5,-,N/A,,Overcast,360,2013-11-23 13:30:00
7:50 AM,32.0,10.4,41,30.68,10.0,North,10.4,-,N/A,,Overcast,360,2013-11-23 13:50:00
8:10 AM,32.0,10.4,41,30.68,10.0,North,11.5,-,N/A,,Overcast,360,2013-11-23 14:10:00
8:30 AM,32.0,10.4,41,30.69,10.0,North,11.5,17.3,N/A,,Overcast,10,2013-11-23 14:30:00
8:50 AM,32.0,10.4,41,30.70,10.0,North,13.8,-,N/A,,Overcast,360,2013-11-23 14:50:00
9:10 AM,32.0,10.4,41,30.70,10.0,North,11.5,-,N/A,,Overcast,10,2013-11-23 15:10:00
9:30 AM,33.8,14.0,44,30.71,10.0,North,13.8,-,N/A,,Overcast,10,2013-11-23 15:30:00
9:50 AM,33.8,14.0,44,30.71,10.0,NNE,15.0,-,N/A,,Overcast,20,2013-11-23 15:50:00
10:10 AM,33.8,15.8,48,30.72,10.0,NNE,13.8,-,N/A,,Overcast,20,2013-11-23 16:10:00
10:30 AM,33.8,15.8,48,30.72,10.0,NNE,16.1,23.0,N/A,,Overcast,30,2013-11-23 16:30:00
10:50 AM,33.8,17.6,52,30.72,10.0,NNE,18.4,-,N/A,,Overcast,30,2013-11-23 16:50:00
11:10 AM,35.6,17.6,48,30.72,10.0,NNE,16.1,-,N/A,,Overcast,20,2013-11-23 17:10:00
11:30 AM,35.6,15.8,44,30.72,10.0,NE,16.1,21.9,N/A,,Overcast,40,2013-11-23 17:30:00
11:50 AM,35.6,15.8,44,30.71,10.0,NNE,17.3,23.0,N/A,,Overcast,20,2013-11-23 17:50:00
12:10 PM,35.6,15.8,44,30.70,10.0,NNE,15.0,-,N/A,,Overcast,30,2013-11-23 18:10:00
12:30 PM,37.4,15.8,41,30.70,10.0,NNE,19.6,-,N/A,,Overcast,30,2013-11-23 18:30:00
12:50 PM,35.6,15.8,44,30.69,10.0,NNE,17.3,23.0,N/A,,Overcast,30,2013-11-23 18:50:00
1:10 PM,37.4,17.6,45,30.69,10.0,NE,15.0,-,N/A,,Overcast,40,2013-11-23 19:10:00
1:30 PM,35.6,17.6,48,30.68,10.0,NNE,19.6,-,N/A,,Overcast,30,2013-11-23 19:30:00
1:50 PM,35.6,17.6,48,30.68,10.0,NNE,19.6,24.2,N/A,,Mostly Cloudy,20,2013-11-23 19:50:00
2:10 PM,35.6,19.4,52,30.68,10.0,NNE,15.0,21.9,N/A,,Partly Cloudy,30,2013-11-23 20:10:00
2:30 PM,35.6,17.6,48,30.68,10.0,NNE,17.3,20.7,N/A,,Clear,30,2013-11-23 20:30:00
2:50 PM,35.6,19.4,52,30.67,10.0,NE,15.0,-,N/A,,Clear,40,2013-11-23 20:50:00
3:10 PM,35.6,19.4,52,30.68,10.0,NE,12.7,-,N/A,,Clear,40,2013-11-23 21:10:00
3:30 PM,35.6,19.4,52,30.69,10.0,NE,16.1,-,N/A,,Mostly Cloudy,40,2013-11-23 21:30:00
3:50 PM,35.6,19.4,52,30.68,10.0,NE,10.4,-,N/A,,Mostly Cloudy,40,2013-11-23 21:50:00
4:10 PM,35.6,19.4,52,30.69,10.0,NE,15.0,18.4,N/A,,Partly Cloudy,40,2013-11-23 22:10:00
4:30 PM,35.6,17.6,48,30.68,10.0,NE,16.1,-,N/A,,Clear,40,2013-11-23 22:30:00
4:50 PM,35.6,17.6,48,30.69,10.0,NE,13.8,-,N/A,,Partly Cloudy,40,2013-11-23 22:50:00
5:10 PM,33.8,17.6,52,30.67,10.0,NE,16.1,21.9,N/A,,Clear,40,2013-11-23 23:10:00
5:30 PM,32.0,17.6,55,30.69,10.0,NNE,15.0,-,N/A,,Clear,30,2013-11-23 23:30:00
5:50 PM,32.0,17.6,55,30.69,10.0,NE,13.8,-,N/A,,Scattered Clouds,40,2013-11-23 23:50:00
6:10 PM,32.0,17.6,55,30.69,10.0,NE,13.8,-,N/A,,Partly Cloudy,40,2013-11-24 00:10:00
6:30 PM,32.0,17.6,55,30.71,10.0,NE,9.2,-,N/A,,Clear,40,2013-11-24 00:30:00
6:50 PM,32.0,19.4,60,30.70,10.0,NE,9.2,-,N/A,,Clear,40,2013-11-24 00:50:00
7:10 PM,32.0,19.4,60,30.71,10.0,NNE,8.1,-,N/A,,Clear,30,2013-11-24 01:10:00
7:30 PM,32.0,19.4,60,30.70,10.0,NE,11.5,-,N/A,,Clear,40,2013-11-24 01:30:00
7:50 PM,32.0,19.4,60,30.69,10.0,NE,11.5,17.3,N/A,,Clear,40,2013-11-24 01:50:00
8:10 PM,30.2,17.6,60,30.69,10.0,NE,10.4,-,N/A,,Clear,40,2013-11-24 02:10:00
8:30 PM,30.2,17.6,60,30.68,10.0,NE,13.8,-,N/A,,Clear,40,2013-11-24 02:30:00
8:50 PM,28.4,15.8,59,30.68,10.0,NE,15.0,-,N/A,,Clear,50,2013-11-24 02:50:00
9:10 PM,28.4,15.8,59,30.67,10.0,NE,12.7,-,N/A,,Clear,50,2013-11-24 03:10:00
9:30 PM,28.4,15.8,59,30.67,10.0,NE,16.1,-,N/A,,Clear,50,2013-11-24 03:30:00
9:50 PM,28.4,15.8,59,30.68,10.0,NE,16.1,-,N/A,,Clear,50,2013-11-24 03:50:00
10:10 PM,28.4,14.0,55,30.68,10.0,NE,12.7,-,N/A,,Clear,50,2013-11-24 04:10:00
10:30 PM,26.6,14.0,59,30.68,10.0,NE,11.5,-,N/A,,Clear,40,2013-11-24 04:30:00
10:50 PM,26.6,15.8,64,30.69,10.0,NE,8.1,-,N/A,,Clear,40,2013-11-24 04:50:00
11:10 PM,26.6,15.8,64,30.68,10.0,NE,10.4,-,N/A,,Clear,40,2013-11-24 05:10:00
11:30 PM,26.6,15.8,64,30.68,10.0,NE,10.4,-,N/A,,Clear,40,2013-11-24 05:30:00
11:50 PM,26.6,15.8,64,30.69,10.0,NNE,8.1,-,N/A,,Clear,20,2013-11-24 05:50:00